Le nostre stazioni meteo in Italia

Pubblicità
Il mio iltempo24.it
Rodkallen, Svezia (2188): Temperatura & dewpoint: 30.06.2020 01:00:00 - 06.07.2020 01:00:00 (CEST)Rodkallen, Svezia (2188): velocità del vento & gusts: 30.06.2020 01:00:00 - 06.07.2020 01:00:00 (CEST)Rodkallen, Svezia (2188): direzione del vento: 30.06.2020 01:00:00 - 06.07.2020 01:00:00 (CEST)Rodkallen, Svezia (2188): visibility: 30.06.2020 01:00:00 - 06.07.2020 01:00:00 (CEST)Rodkallen, Svezia (2188): precipitazioni: 30.06.2020 01:00:00 - 06.07.2020 01:00:00 (CEST)
Data & Tempo tt [°C] td [°C] ff [km/h] ff [kn] fx [km/h] fx [kn] dd vv [km] rr [mm]
06.07.2020 01:00:00 11,6 9,4 22 12 25 14 NE 50 0,0
06.07.2020 00:00:00 11,6 10,0 12 7 15 8 NE 50 0,0
05.07.2020 23:00:00 12,0 8,5 5 3 10 5 SE 34 0,0
05.07.2020 22:00:00 12,4 9,0 11 6 26 14 SSE 50 0,0
05.07.2020 21:00:00 12,7 9,9 22 12 30 16 S 48 0,0
05.07.2020 20:00:00 12,8 9,6 22 12 36 19 S 49 0,0
05.07.2020 19:00:00 13,2 10,0 29 16 41 22 S 43 0,0
05.07.2020 18:00:00 13,5 9,7 27 14 33 18 S 44 0,0
05.07.2020 17:00:00 13,7 9,4 21 12 26 14 S 43 0,0
05.07.2020 16:00:00 14,0 9,2 21 11 25 14 S 43 0,0
05.07.2020 15:00:00 14,8 8,5 11 6 22 12 SO 50 0,0
05.07.2020 14:00:00 13,8 8,6 13 7 23 13 O 50 0,0
05.07.2020 13:00:00 14,2 7,0 23 12 38 20 ONO 45 0,0
05.07.2020 12:00:00 13,6 6,7 31 17 41 22 ONO 40 0,0
05.07.2020 11:00:00 12,1 7,4 34 18 46 25 ONO 50 0,0
05.07.2020 10:00:00 11,4 7,3 31 17 46 25 ONO 40 0,0
05.07.2020 09:00:00 10,7 7,9 32 18 44 24 ONO 50 0,0
05.07.2020 08:00:00 10,5 8,8 32 18 40 21 ONO 38 0,0
05.07.2020 07:00:00 10,3 8,4 26 14 33 18 O 50 0,0
05.07.2020 06:00:00 10,3 8,1 24 13 29 16 O 50 0,0
05.07.2020 05:00:00 10,5 8,4 18 10 21 12 O 50 0,0
05.07.2020 04:00:00 10,5 8,3 16 9 21 12 ONO 50 0,0
05.07.2020 03:00:00 10,6 8,4 19 10 22 12 O 50 0,0
05.07.2020 02:00:00 10,1 8,2 10 5 19 10 NO 50 0,0
05.07.2020 01:00:00 10,9 8,8 14 8 18 10 O 50 0,0
05.07.2020 00:00:00 11,1 9,0 13 7 16 9 SO 50 0,0
04.07.2020 23:00:00 11,2 9,0 10 5 14 7 SSO 50 0,0
04.07.2020 22:00:00 11,0 9,4 4 2 16 9 SE 36 0,0
04.07.2020 21:00:00 10,8 9,1 13 7 17 9 E 50 0,0
04.07.2020 20:00:00 10,5 7,4 13 7 16 9 E 50 0,0
04.07.2020 19:00:00 10,6 7,7 10 5 14 8 E 50 0,1
04.07.2020 18:00:00 10,4 6,9 6 3 24 13 SSO 21 2,3
04.07.2020 17:00:00 11,0 8,3 24 13 33 18 SSO 17 2,3
04.07.2020 16:00:00 11,7 10,6 21 11 27 15 ENE 15 0,5
04.07.2020 15:00:00 11,4 9,3 15 8 22 12 ENE 24 0,4
04.07.2020 14:00:00 10,9 7,6 19 11 29 16 NE 25 0,5
04.07.2020 13:00:00 10,7 7,8 18 10 22 12 ENE 28 0,7
04.07.2020 12:00:00 10,6 8,4 13 7 35 19 ENE 25 2,7
04.07.2020 11:00:00 11,7 7,4 19 10 23 12 E 50 0,0
04.07.2020 10:00:00 12,0 6,9 12 6 15 8 ESE 49 0,0
04.07.2020 09:00:00 12,6 7,3 12 6 15 8 S 46 0,0
04.07.2020 08:00:00 12,5 7,4 10 5 21 11 SO 35 0,0
04.07.2020 07:00:00 11,9 8,0 16 8 24 13 SO 48 0,0
04.07.2020 06:00:00 11,2 7,5 22 12 29 16 OSO 48 0,0
04.07.2020 05:00:00 10,8 7,7 25 14 37 20 OSO 50 0,0
04.07.2020 04:00:00 10,7 7,9 29 16 42 23 OSO 50 0,0
04.07.2020 03:00:00 10,6 7,8 33 18 45 24 SO 50 0,0
04.07.2020 02:00:00 10,8 7,7 38 21 53 29 OSO 50 0,0
04.07.2020 01:00:00 10,5 7,0 44 24 59 32 SO 50 0,0
04.07.2020 00:00:00 10,6 7,3 49 26 59 32 SO 50 0,0
03.07.2020 23:00:00 10,8 7,4 48 26 63 34 SO 50 0,0
03.07.2020 22:00:00 10,9 7,6 52 28 62 34 SO 47 0,0
03.07.2020 21:00:00 10,9 7,4 50 27 61 33 SO 49 0,0
03.07.2020 20:00:00 10,9 7,4 45 25 63 34 SSO 42 0,0
03.07.2020 19:00:00 11,3 7,8 47 26 60 32 SSO 39 0,0
03.07.2020 18:00:00 12,0 9,0 50 27 60 32 SSO 33 0,0
03.07.2020 17:00:00 12,3 10,1 47 26 56 31 SSO 29 0,0
03.07.2020 16:00:00 12,5 10,0 46 25 56 30 S 33 0,0
03.07.2020 15:00:00 13,2 10,9 41 22 49 26 S 46 0,0
03.07.2020 14:00:00 13,6 11,5 21 11 32 17 SE 39 0,0
03.07.2020 13:00:00 13,5 11,2 26 14 39 21 SE 31 0,0
03.07.2020 12:00:00 14,4 12,4 24 13 39 21 ESE 33 0,0
03.07.2020 11:00:00 13,5 11,6 30 16 62 34 ESE 38 1,6
03.07.2020 10:00:00 11,8 10,9 46 25 59 32 ENE 2,2 4,7
03.07.2020 09:00:00 12,7 10,1 40 22 52 28 ENE 31 0,3
03.07.2020 08:00:00 12,7 8,8 45 24 54 29 ENE 23 0,1
03.07.2020 07:00:00 12,3 7,4 39 21 50 27 NNE 50 0,2
03.07.2020 06:00:00 11,9 7,3 41 22 49 27 NNE 50 2,6
03.07.2020 05:00:00 12,1 6,6 35 19 51 28 ENE 16 0,6
03.07.2020 04:00:00 13,3 3,3 27 15 54 29 ENE 36 0,0
03.07.2020 03:00:00 14,3 2,7 20 11 39 21 E 33 0,0
03.07.2020 02:00:00 14,4 3,2 10 5 20 11 NNE 38 0,0
03.07.2020 01:00:00 14,8 3,5 10 5 22 12 SSE 45 0,0
03.07.2020 00:00:00 14,4 6,0 20 11 39 21 S 49 0,0
02.07.2020 23:00:00 14,5 6,6 25 14 37 20 SSE 47 0,0
02.07.2020 22:00:00 14,4 7,7 29 15 35 19 S 50 0,0
02.07.2020 21:00:00 14,5 7,3 31 17 36 19 S 50 0,0
02.07.2020 20:00:00 14,5 7,9 32 17 40 21 S 42 0,0
02.07.2020 19:00:00 14,5 8,6 33 18 44 24 S 50 0,0
02.07.2020 18:00:00 14,9 8,6 39 21 46 25 S 46 0,0
02.07.2020 17:00:00 15,0 8,0 40 21 46 25 S 35 0,0
02.07.2020 16:00:00 15,9 6,6 30 16 35 19 S 44 0,0
02.07.2020 15:00:00 16,9 2,5 18 10 28 15 SO 49 0,0
02.07.2020 14:00:00 16,3 2,3 19 11 31 17 SO 43 0,0
02.07.2020 13:00:00 16,0 3,1 23 13 35 19 OSO 42 0,0
02.07.2020 12:00:00 15,5 3,0 27 14 36 19 OSO 45 0,0
02.07.2020 11:00:00 14,7 3,8 23 13 33 18 OSO 34 0,0
02.07.2020 10:00:00 13,8 3,3 22 12 33 18 OSO 46 0,0
02.07.2020 09:00:00 12,8 3,7 26 14 35 19 OSO 42 0,0
02.07.2020 08:00:00 11,9 3,9 29 15 36 19 O 47 0,0
02.07.2020 07:00:00 11,4 4,6 29 16 41 22 O 44 0,0
02.07.2020 06:00:00 11,1 4,3 34 18 46 25 O 49 0,0
02.07.2020 05:00:00 11,1 3,9 37 20 46 25 O 46 0,0
02.07.2020 04:00:00 11,5 4,2 39 21 50 27 O 50 0,0
02.07.2020 03:00:00 11,8 4,8 36 20 49 27 O 50 0,0
02.07.2020 02:00:00 12,5 2,9 41 22 49 26 O 50 0,0
02.07.2020 01:00:00 13,5 4,4 40 22 47 25 O 50 0,0
02.07.2020 00:00:00 14,4 4,7 29 16 40 21 O 50 0,0
01.07.2020 23:00:00 14,5 3,2 28 15 39 21 O 50 0,0
01.07.2020 22:00:00 14,9 3,4 32 17 45 25 O 50 0,0
01.07.2020 21:00:00 15,6 4,3 36 20 44 24 O 50 0,0
01.07.2020 20:00:00 16,4 6,5 34 19 42 23 OSO 50 0,0
01.07.2020 19:00:00 16,7 6,5 30 16 36 20 OSO 50 0,0
01.07.2020 18:00:00 17,2 7,3 26 14 31 17 OSO 41 0,0
01.07.2020 17:00:00 15,7 10,9 24 13 31 17 SSO 49 0,0
01.07.2020 16:00:00 15,5 10,3 24 13 34 18 S 41 0,0
01.07.2020 15:00:00 14,8 8,5 26 14 33 18 SSO 43 0,0
01.07.2020 14:00:00 16,6 7,8 11 6 21 11 SO 43 0,0
01.07.2020 13:00:00 15,8 6,8 16 9 27 15 O 36 0,0
01.07.2020 12:00:00 14,6 7,6 17 9 28 15 O 46 0,0
01.07.2020 11:00:00 12,5 7,3 21 12 34 18 O 50 0,0
01.07.2020 10:00:00 12,1 7,2 27 15 36 19 O 50 0,0
01.07.2020 09:00:00 11,9 7,8 24 13 36 19 ONO 50 0,0
01.07.2020 08:00:00 11,6 7,3 27 14 37 20 ONO 50 0,0
01.07.2020 07:00:00 10,9 7,6 24 13 40 21 NO 50 0,0
01.07.2020 06:00:00 10,7 8,1 25 13 41 22 NO 50 0,0
01.07.2020 05:00:00 10,6 8,4 30 16 41 22 ONO 50 0,0
01.07.2020 04:00:00 11,1 9,0 26 14 42 23 ONO 50 0,0
01.07.2020 03:00:00 11,5 9,7 28 15 42 23 NO 50 0,0
01.07.2020 02:00:00 12,4 10,8 30 16 40 22 NO 50 0,0
01.07.2020 01:00:00 13,8 12,4 25 13 40 22 NO 46 0,2
01.07.2020 00:00:00 14,9 13,8 23 12 33 18 NO 16 0,0
30.06.2020 23:00:00 15,9 13,7 9 5 12 6 ONO 50 0,0
30.06.2020 22:00:00 15,3 12,6 5 3 17 9 ONO 45 0,0
30.06.2020 21:00:00 15,6 13,1 17 9 32 17 SE 50 0,0
30.06.2020 20:00:00 15,6 13,4 24 13 29 16 ESE 36 0,0
30.06.2020 19:00:00 15,8 13,6 18 10 23 12 ESE 41 0,0
30.06.2020 18:00:00 15,7 13,5 19 10 23 13 SSE 38 0,0
30.06.2020 17:00:00 15,9 13,9 18 10 26 14 SSE 30 0,0
30.06.2020 16:00:00 16,0 13,8 23 13 31 17 SSE 26 0,0
30.06.2020 15:00:00 15,6 14,3 26 14 34 18 SSE 17 0,0
30.06.2020 14:00:00 16,0 14,4 29 16 37 20 SSE 23 0,0
30.06.2020 13:00:00 15,6 14,0 31 17 41 22 S 23 0,0
30.06.2020 12:00:00 15,5 13,7 35 19 40 22 S 23 0,0
30.06.2020 11:00:00 15,4 13,7 31 17 39 21 SSE 25 0,0
30.06.2020 10:00:00 15,1 13,5 32 17 38 20 S 32 0,0
30.06.2020 09:00:00 15,2 13,6 33 18 38 21 S 29 0,0
30.06.2020 08:00:00 15,2 13,7 35 19 43 23 S 29 0,0
30.06.2020 07:00:00 15,3 14,0 30 16 37 20 S 28 0,0
30.06.2020 06:00:00 15,4 14,4 31 17 40 22 S 20 0,0
30.06.2020 05:00:00 15,9 14,5 35 19 41 22 SSO 24 0,0
30.06.2020 04:00:00 15,5 14,7 29 16 40 22 S 19 0,0
30.06.2020 03:00:00 15,4 14,6 32 17 42 23 S 19 0,0
30.06.2020 02:00:00 15,2 14,6 32 17 47 25 S 17 0,0
30.06.2020 01:00:00 15,2 14,4 40 22 52 28 S 17 0,0

tt = Temperatura
td = dewpoint
ff = velocità del vento
fx = gusts
dd = direzione del vento
vv = visibility
rr = precipitazioni

Stazioni seguenti

WeatherPro
AMSI
MeteoEarth